Location: Burland Observatory
(39.4088°N, 105.4217°W)
Time: 04:58:30
(UTC-06:00)

Envisat - Visible Passes

Search period start: 20 March 2019 00:00
Search period end: 30 March 2019 00:00
Orbit: 764 x 766 km, 98.2° (Epoch: 19 March)

Date Brightness Start Highest point End Pass type
(mag) Time Alt. Az. Time Alt. Az. Time Alt. Az.
20 Mar 5.2 20:33:33 10° SSW 20:37:48 27° W 20:42:05 10° NW visible
21 Mar 3.6 19:55:53 10° S 20:00:53 62° W 20:05:56 10° NNW visible
22 Mar 5.9 21:00:40 10° SW 21:03:33 15° W 21:06:27 10° NW visible
23 Mar 4.8 20:21:56 10° SSW 20:26:30 34° W 20:31:07 10° NNW visible
24 Mar 3.2 19:44:36 10° S 19:49:40 79° WSW 19:54:45 10° NNW visible
25 Mar 5.7 20:48:38 10° SW 20:52:14 19° W 20:55:51 10° NW visible
26 Mar 4.3 20:10:26 10° S 20:15:14 44° W 20:20:05 10° NNW visible
27 Mar 6.3 21:17:21 10° W 21:18:03 10° W 21:18:45 10° W visible
28 Mar 5.3 20:36:50 10° SSW 20:40:55 25° W 20:45:03 10° NW visible
29 Mar 3.8 19:59:02 10° S 20:03:59 56° W 20:08:59 10° NNW visible
